This demonstration page uses our WeatherBlox Daily Observations layout. Learn more.

Left ArrowRight Arrow

44.8408, -93.29828

Hourly Observations for April 4, 2022

Temp ( °F °C ) Dew Point ( °F °C ) Humidity (%) Winds ( mph kmh ) Pressure ( in mb ) Visibility ( mi km ) Precip ( " mm )
12:07 am 00:07 Cloudy with Light Snow 33 0.6 31 -0.6 92 92 N 15 24 29.81 1010 2 2 0.02 0.51
3:53 am 03:53 Cloudy 33 0.6 31 -0.6 92 92 NNW 12 19 29.85 1011 10 16 0.00 0.00
4:53 am 04:53 Cloudy 33 0.6 31 -0.6 92 92 NNW 15 24 29.88 1012 10 16 0.00 0.00
4:57 am 04:57 Cloudy 33 0.6 31 -0.6 92 92 NW 13 20 29.90 1013 10 16 0.00 0.00
5:53 am 05:53 Cloudy 33 0.6 31 -0.6 92 92 NNW 16 26 29.89 1012 10 16 0.00 0.00
6:53 am 06:53 Cloudy 33 0.6 31 -0.6 92 92 NNW 15 24 29.92 1013 10 16 0.00 0.00
7:53 am 07:53 Cloudy 33 0.6 31 -0.6 92 92 NNW 12 19 29.94 1014 10 16 0.00 0.00
8:53 am 08:53 Cloudy 33 0.6 30 -1.1 89 89 NNW 14 22 29.93 1014 10 16 0.00 0.00
9:46 am 09:46 Cloudy 33 0.6 31 -0.6 92 92 NNW 13 20 29.95 1014 10 16 0.00 0.00
9:53 am 09:53 Cloudy 33 0.6 30 -1.1 89 89 NNW 13 20 29.94 1014 10 16 0.00 0.00
10:06 am 10:06 Cloudy 33 0.6 31 -0.6 92 92 NNW 13 20 29.95 1014 10 16 0.00 0.00
10:16 am 10:16 Cloudy 34 1.1 31 -0.6 89 89 NNW 10 17 29.96 1015 10 16 0.00 0.00
10:53 am 10:53 Cloudy 34 1.1 30 -1.1 85 85 NNW 9 15 29.95 1014 10 16 0.00 0.00
11:53 am 11:53 Cloudy 36 2.2 31 -0.6 82 82 NNW 8 13 29.97 1015 10 16 0.00 0.00
12:53 pm 12:53 Cloudy 38 3.3 32 0 79 79 NW 5 7 29.96 1014 10 16 0.00 0.00
1:02 pm 13:02 Cloudy 38 3.3 32 0 79 79 NW 7 11 29.97 1015 10 16 0.00 0.00
1:33 pm 13:33 Cloudy 39 3.9 32 0 76 76 VRB 5 7 29.96 1015 10 16 0.00 0.00
1:53 pm 13:53 Cloudy 40 4.4 32 0 73 73 W 5 7 29.95 1014 10 16 0.00 0.00
2:53 pm 14:53 Mostly Cloudy 43 6.1 33 0.6 68 68 NW 7 11 29.93 1014 10 16 0.00 0.00
3:31 pm 15:31 Partly Cloudy 43 6.1 30 -1.1 60 60 Calm 29.91 1013 10 16 0.00 0.00
3:53 pm 15:53 Partly Cloudy 44 6.7 30 -1.1 58 58 Calm 29.89 1012 10 16 0.00 0.00
4:53 pm 16:53 Mostly Sunny 45 7.2 29 -1.7 54 54 VRB 6 9 29.87 1011 10 16 0.00 0.00
5:53 pm 17:53 Mostly Sunny 45 7.2 29 -1.7 54 54 SE 5 7 29.85 1011 10 16 0.00 0.00
6:53 pm 18:53 Mostly Cloudy 44 6.7 31 -0.6 60 60 ESE 9 15 29.83 1010 10 16 0.00 0.00
7:53 pm 19:53 Mostly Cloudy 41 5 31 -0.6 67 67 SE 9 15 29.84 1011 10 16 0.00 0.00
8:53 pm 20:53 Partly Cloudy 40 4.4 31 -0.6 70 70 ESE 12 19 29.84 1010 10 16 0.00 0.00
9:53 pm 21:53 Partly Cloudy 38 3.3 31 -0.6 76 76 SE 14 22 29.83 1010 10 16 0.00 0.00
10:53 pm 22:53 Mostly Cloudy 37 2.8 31 -0.6 79 79 SE 12 19 29.81 1010 10 16 0.00 0.00
11:53 pm 23:53 Mostly Cloudy 37 2.8 31 -0.6 79 79 SE 10 17 29.80 1009 10 16 0.00 0.00

Powered by AerisWeather